Zurück zum Katalog

STARLINK-34819

AktivKommunikationVLEO
NORAD 65040·PAYLOAD·🇺🇸 United States

Gestartet Jul 30, 2025 von Cape Canaveral Space Force Station

Loading…

Nächste Überflüge (nächste 24 Stunden)

TLE

AktuellSource: CelesTrak SupGP

Epoche: Sep 14, 2026, 22:56 UTC

1 65040C 25161AB  26257.95604167 -.00132090  00000+0 -39032-2 0  2572
2 65040  53.1567 133.3678 0001342  85.9981 195.0919 15.34450459    10

Verfolge STARLINK-34819 in Echtzeit mit AllMySat

Download on the App Store